^^
Grace C. Lehan Memorial Weather Station Historical Data
Daily Summary for June 29, 2021 Units:  Both    English   Metric
Daily Weekly Monthly Yearly
  High: Low: Average:
Temperature: 41.8 °F /  5.4 °C 32.5 °F /  0.3 °C 35.2 °F /  1.8 °C
Dew Point: 34 °F /  1.1 °C 24.7 °F /  -4.1 °C 29.3 °F /  -1.5 °C
Humidity: 92% 60% 80%
Wind Speed: 9.7mph /  15.6km/h - 2.2mph /  3.5km/h
Wind Gust: 24mph /  38.6km/h - -
Wind- - WNW
Pressure: 29.92 in /  1013.1 hPa 29.78 in /  1008.4 hPa -
Precipitation: 0.00 in /  0 mm    
 
 
Tabular Data for June 29, 2021
Time Temperature Dew Point Pressure Wind Wind Speed Wind Gust Humidity Rainfall Rate (Hourly) solar
00:04 33 °F /  0.6 °C 30.4 °F /  -0.9 °C 29.78in /  1008.4hPa Calm     90% 0.00in /  0mm 0 W/m2
00:09 33 °F /  0.6 °C 30.4 °F /  -0.9 °C 29.78in /  1008.4hPa Calm     90% 0.00in /  0mm 0 W/m2
00:14 32.9 °F /  0.5 °C 30.3 °F /  -0.9 °C 29.78in /  1008.4hPa Calm     90% 0.00in /  0mm 0 W/m2
00:19 32.9 °F /  0.5 °C 30.3 °F /  -0.9 °C 29.78in /  1008.4hPa Calm     90% 0.00in /  0mm 0 W/m2
00:24 32.9 °F /  0.5 °C 30.3 °F /  -0.9 °C 29.78in /  1008.4hPa Calm     90.1% 0.00in /  0mm 0 W/m2
00:29 32.8 °F /  0.4 °C 30.5 °F /  -0.8 °C 29.78in /  1008.4hPa Calm     91% 0.00in /  0mm 0 W/m2
00:34 32.8 °F /  0.4 °C 30.5 °F /  -0.8 °C 29.78in /  1008.4hPa Calm     91% 0.00in /  0mm 0 W/m2
00:39 32.8 °F /  0.4 °C 30.5 °F /  -0.8 °C 29.78in /  1008.4hPa Calm     91% 0.00in /  0mm 0 W/m2
00:44 32.7 °F /  0.4 °C 30.4 °F /  -0.9 °C 29.78in /  1008.4hPa Calm     91% 0.00in /  0mm 0 W/m2
00:49 32.6 °F /  0.3 °C 30.3 °F /  -0.9 °C 29.78in /  1008.4hPa Calm     91% 0.00in /  0mm 0 W/m2
00:54 32.6 °F /  0.3 °C 30.2 °F /  -1 °C 29.78in /  1008.4hPa Calm     91% 0.00in /  0mm 0 W/m2
00:59 32.5 °F /  0.3 °C 30.2 °F /  -1 °C 29.78in /  1008.4hPa Calm     91% 0.00in /  0mm 0 W/m2
01:04 32.5 °F /  0.3 °C 30.2 °F /  -1 °C 29.78in /  1008.4hPa Calm     91% 0.00in /  0mm 0 W/m2
01:09 32.5 °F /  0.3 °C 30.2 °F /  -1 °C 29.78in /  1008.4hPa Calm     91% 0.00in /  0mm 0 W/m2
01:14 32.5 °F /  0.3 °C 30.4 °F /  -0.9 °C 29.79in /  1008.7hPa Calm     92% 0.00in /  0mm 0 W/m2
01:19 32.6 °F /  0.3 °C 30.5 °F /  -0.8 °C 29.79in /  1008.7hPa Calm     92% 0.00in /  0mm 0 W/m2
01:24 32.5 °F /  0.3 °C 30.5 °F /  -0.8 °C 29.79in /  1008.7hPa Calm     92% 0.00in /  0mm 0 W/m2
01:29 32.5 °F /  0.3 °C 30.4 °F /  -0.9 °C 29.79in /  1008.7hPa Calm     92% 0.00in /  0mm 0 W/m2
01:34 32.5 °F /  0.3 °C 30.4 °F /  -0.9 °C 29.79in /  1008.7hPa Calm     92% 0.00in /  0mm 0 W/m2
01:39 32.5 °F /  0.3 °C 30.4 °F /  -0.9 °C 29.80in /  1009hPa Calm     92% 0.00in /  0mm 0 W/m2
01:44 32.6 °F /  0.3 °C 30.5 °F /  -0.8 °C 29.79in /  1008.7hPa Calm     92% 0.00in /  0mm 0 W/m2
01:49 32.6 °F /  0.3 °C 30.5 °F /  -0.8 °C 29.79in /  1008.7hPa Calm     92% 0.00in /  0mm 0 W/m2
01:54 32.6 °F /  0.3 °C 30.5 °F /  -0.8 °C 29.80in /  1009hPa Calm     92% 0.00in /  0mm 0 W/m2
01:59 32.6 °F /  0.3 °C 30.5 °F /  -0.8 °C 29.79in /  1008.7hPa Calm     92% 0.00in /  0mm 0 W/m2
02:04 32.6 °F /  0.3 °C 30.5 °F /  -0.8 °C 29.79in /  1008.7hPa Calm     92% 0.00in /  0mm 0 W/m2
02:09 32.6 °F /  0.3 °C 30.5 °F /  -0.8 °C 29.79in /  1008.7hPa Calm     92% 0.00in /  0mm 0 W/m2
02:14 32.6 °F /  0.3 °C 30.5 °F /  -0.8 °C 29.79in /  1008.7hPa Calm     92% 0.00in /  0mm 0 W/m2
02:19 32.6 °F /  0.3 °C 30.6 °F /  -0.8 °C 29.79in /  1008.7hPa Calm     92% 0.00in /  0mm 0 W/m2
02:24 32.7 °F /  0.4 °C 30.6 °F /  -0.8 °C 29.79in /  1008.7hPa Calm     92% 0.00in /  0mm 0 W/m2
02:29 32.7 °F /  0.4 °C 30.6 °F /  -0.8 °C 29.79in /  1008.7hPa Calm     92% 0.00in /  0mm 0 W/m2
02:34 32.7 °F /  0.4 °C 30.7 °F /  -0.7 °C 29.79in /  1008.7hPa Calm     92% 0.00in /  0mm 0 W/m2
02:39 32.7 °F /  0.4 °C 30.6 °F /  -0.8 °C 29.79in /  1008.7hPa Calm     92% 0.00in /  0mm 0 W/m2
02:44 32.7 °F /  0.4 °C 30.7 °F /  -0.7 °C 29.79in /  1008.7hPa Calm     92% 0.00in /  0mm 0 W/m2
02:49 32.8 °F /  0.4 °C 30.7 °F /  -0.7 °C 29.79in /  1008.7hPa Calm     92% 0.00in /  0mm 0 W/m2
02:54 32.8 °F /  0.4 °C 30.8 °F /  -0.7 °C 29.79in /  1008.7hPa Calm     92% 0.00in /  0mm 0 W/m2
02:59 32.9 °F /  0.5 °C 30.8 °F /  -0.7 °C 29.79in /  1008.7hPa Calm     92% 0.00in /  0mm 0 W/m2
03:04 32.9 °F /  0.5 °C 30.8 °F /  -0.7 °C 29.79in /  1008.7hPa Calm     92% 0.00in /  0mm 0 W/m2
03:09 32.8 °F /  0.4 °C 30.8 °F /  -0.7 °C 29.79in /  1008.7hPa Calm     92% 0.00in /  0mm 0 W/m2
03:14 32.9 °F /  0.5 °C 30.8 °F /  -0.7 °C 29.78in /  1008.4hPa Calm     92% 0.00in /  0mm 0 W/m2
03:19 32.9 °F /  0.5 °C 30.8 °F /  -0.7 °C 29.78in /  1008.4hPa Calm     92% 0.00in /  0mm 0 W/m2
03:24 32.9 °F /  0.5 °C 30.8 °F /  -0.7 °C 29.79in /  1008.7hPa Calm     92% 0.00in /  0mm 0 W/m2
03:29 32.9 °F /  0.5 °C 30.8 °F /  -0.7 °C 29.79in /  1008.7hPa Calm     92% 0.00in /  0mm 0 W/m2
03:34 32.9 °F /  0.5 °C 30.8 °F /  -0.7 °C 29.79in /  1008.7hPa Calm     92% 0.00in /  0mm 0 W/m2
03:39 32.9 °F /  0.5 °C 30.8 °F /  -0.7 °C 29.79in /  1008.7hPa Calm     92% 0.00in /  0mm 0 W/m2
03:44 32.9 °F /  0.5 °C 30.8 °F /  -0.7 °C 29.79in /  1008.7hPa SW 0.2mph /  0.3km/h 3mph /  4.8km/h 92% 0.00in /  0mm 0 W/m2
03:49 32.9 °F /  0.5 °C 30.8 °F /  -0.7 °C 29.79in /  1008.7hPa Calm   3mph /  4.8km/h 92% 0.00in /  0mm 0 W/m2
03:54 32.9 °F /  0.5 °C 30.9 °F /  -0.6 °C 29.79in /  1008.7hPa Calm   3mph /  4.8km/h 92% 0.00in /  0mm 0 W/m2
03:59 32.9 °F /  0.5 °C 30.9 °F /  -0.6 °C 29.79in /  1008.7hPa Calm   3mph /  4.8km/h 92% 0.00in /  0mm 0 W/m2
04:09 32.9 °F /  0.5 °C 30.8 °F /  -0.7 °C 29.79in /  1008.7hPa SW 0.2mph /  0.3km/h 3mph /  4.8km/h 92% 0.00in /  0mm 0 W/m2
04:14 32.9 °F /  0.5 °C 30.8 °F /  -0.7 °C 29.80in /  1009hPa Calm   3mph /  4.8km/h 92% 0.00in /  0mm 0 W/m2
04:19 32.9 °F /  0.5 °C 30.8 °F /  -0.7 °C 29.80in /  1009hPa Calm   3mph /  4.8km/h 92% 0.00in /  0mm 0 W/m2
04:24 32.9 °F /  0.5 °C 30.8 °F /  -0.7 °C 29.80in /  1009hPa Calm   3mph /  4.8km/h 92% 0.00in /  0mm 0 W/m2
04:29 32.9 °F /  0.5 °C 30.8 °F /  -0.7 °C 29.79in /  1008.7hPa Calm   3mph /  4.8km/h 92% 0.00in /  0mm 0 W/m2
04:34 32.8 °F /  0.4 °C 30.8 °F /  -0.7 °C 29.79in /  1008.7hPa Calm   3mph /  4.8km/h 92% 0.00in /  0mm 0 W/m2
04:39 32.8 °F /  0.4 °C 30.7 °F /  -0.7 °C 29.79in /  1008.7hPa Calm     92% 0.00in /  0mm 0 W/m2
04:44 32.8 °F /  0.4 °C 30.7 °F /  -0.7 °C 29.79in /  1008.7hPa Calm     92% 0.00in /  0mm 0 W/m2
04:49 32.7 °F /  0.4 °C 30.7 °F /  -0.7 °C 29.79in /  1008.7hPa SW 0.1mph /  0.2km/h 2mph /  3.2km/h 92% 0.00in /  0mm 0 W/m2
04:54 32.7 °F /  0.4 °C 30.6 °F /  -0.8 °C 29.80in /  1009hPa Calm   2mph /  3.2km/h 92% 0.00in /  0mm 0 W/m2
04:59 32.7 °F /  0.4 °C 30.6 °F /  -0.8 °C 29.80in /  1009hPa Calm   2mph /  3.2km/h 92% 0.00in /  0mm 0 W/m2
05:04 32.7 °F /  0.4 °C 30.6 °F /  -0.8 °C 29.80in /  1009hPa Calm   2mph /  3.2km/h 92% 0.00in /  0mm 0 W/m2
05:09 32.7 °F /  0.4 °C 30.6 °F /  -0.8 °C 29.80in /  1009hPa Calm     92% 0.00in /  0mm 0 W/m2
05:14 32.7 °F /  0.4 °C 30.6 °F /  -0.8 °C 29.80in /  1009hPa Calm     92% 0.00in /  0mm 0 W/m2
05:19 32.7 °F /  0.4 °C 30.6 °F /  -0.8 °C 29.81in /  1009.4hPa Calm     92% 0.00in /  0mm 0 W/m2
05:24 32.7 °F /  0.4 °C 30.6 °F /  -0.8 °C 29.81in /  1009.4hPa Calm     92% 0.00in /  0mm 0 W/m2
05:29 32.7 °F /  0.4 °C 30.6 °F /  -0.8 °C 29.81in /  1009.4hPa Calm     92% 0.00in /  0mm 0 W/m2
05:34 32.7 °F /  0.4 °C 30.6 °F /  -0.8 °C 29.81in /  1009.4hPa Calm     92% 0.00in /  0mm 0 W/m2
05:39 32.7 °F /  0.4 °C 30.6 °F /  -0.8 °C 29.81in /  1009.4hPa Calm     92% 0.00in /  0mm 0 W/m2
05:44 32.7 °F /  0.4 °C 30.6 °F /  -0.8 °C 29.81in /  1009.4hPa Calm     92% 0.00in /  0mm 0 W/m2
05:49 32.7 °F /  0.4 °C 30.6 °F /  -0.8 °C 29.81in /  1009.4hPa Calm     92% 0.00in /  0mm 0 W/m2
05:54 32.7 °F /  0.4 °C 30.6 °F /  -0.8 °C 29.81in /  1009.4hPa Calm     92% 0.00in /  0mm 0 W/m2
05:59 32.7 °F /  0.4 °C 30.6 °F /  -0.8 °C 29.81in /  1009.4hPa Calm     92% 0.00in /  0mm 0 W/m2
06:04 32.7 °F /  0.4 °C 30.6 °F /  -0.8 °C 29.82in /  1009.7hPa Calm     92% 0.00in /  0mm 0 W/m2
06:09 32.7 °F /  0.4 °C 30.6 °F /  -0.8 °C 29.82in /  1009.7hPa Calm     92% 0.00in /  0mm 0 W/m2
06:14 32.7 °F /  0.4 °C 30.6 °F /  -0.8 °C 29.82in /  1009.7hPa Calm     92% 0.00in /  0mm 0 W/m2
06:19 32.7 °F /  0.4 °C 30.6 °F /  -0.8 °C 29.82in /  1009.7hPa Calm     92% 0.00in /  0mm 0 W/m2
06:24 32.7 °F /  0.4 °C 30.6 °F /  -0.8 °C 29.82in /  1009.7hPa Calm     92% 0.00in /  0mm 0 W/m2
06:29 32.7 °F /  0.4 °C 30.6 °F /  -0.8 °C 29.82in /  1009.7hPa Calm     92% 0.00in /  0mm 0 W/m2
06:34 32.7 °F /  0.4 °C 30.7 °F /  -0.7 °C 29.82in /  1009.7hPa Calm     92% 0.00in /  0mm 0 W/m2
06:39 32.8 °F /  0.4 °C 30.7 °F /  -0.7 °C 29.82in /  1009.7hPa Calm     92% 0.00in /  0mm 0 W/m2
06:44 32.8 °F /  0.4 °C 30.7 °F /  -0.7 °C 29.82in /  1009.7hPa Calm     92% 0.00in /  0mm 0 W/m2
06:49 32.8 °F /  0.4 °C 30.8 °F /  -0.7 °C 29.83in /  1010hPa Calm     92% 0.00in /  0mm 0 W/m2
06:54 32.9 °F /  0.5 °C 30.8 °F /  -0.7 °C 29.83in /  1010hPa Calm     92% 0.00in /  0mm 0 W/m2
06:59 33 °F /  0.6 °C 30.9 °F /  -0.6 °C 29.83in /  1010hPa Calm     92% 0.00in /  0mm 0 W/m2
07:04 33 °F /  0.6 °C 30.9 °F /  -0.6 °C 29.83in /  1010hPa Calm     92% 0.00in /  0mm 0 W/m2
07:09 33 °F /  0.6 °C 31 °F /  -0.6 °C 29.83in /  1010hPa Calm     92% 0.00in /  0mm 5 W/m2
07:14 33.1 °F /  0.6 °C 31 °F /  -0.6 °C 29.83in /  1010hPa Calm     92% 0.00in /  0mm 9 W/m2
07:19 33.2 °F /  0.7 °C 31.1 °F /  -0.5 °C 29.83in /  1010hPa SW 0.2mph /  0.3km/h 2mph /  3.2km/h 92% 0.00in /  0mm 9 W/m2
07:24 33.2 °F /  0.7 °C 31.2 °F /  -0.4 °C 29.83in /  1010hPa SW 0.2mph /  0.3km/h 3mph /  4.8km/h 92% 0.00in /  0mm 9 W/m2
07:29 33.3 °F /  0.7 °C 31.2 °F /  -0.4 °C 29.83in /  1010hPa Calm   3mph /  4.8km/h 92% 0.00in /  0mm 12 W/m2
07:34 33.3 °F /  0.7 °C 31.3 °F /  -0.4 °C 29.83in /  1010hPa Calm   3mph /  4.8km/h 92% 0.00in /  0mm 16 W/m2
07:39 33.4 °F /  0.8 °C 31.3 °F /  -0.4 °C 29.83in /  1010hPa Calm     92% 0.00in /  0mm 14 W/m2
07:44 33.5 °F /  0.8 °C 31.4 °F /  -0.3 °C 29.84in /  1010.4hPa WSW 0.5mph /  0.8km/h 4mph /  6.4km/h 92% 0.00in /  0mm 19 W/m2
07:49 33.5 °F /  0.8 °C 31.5 °F /  -0.3 °C 29.84in /  1010.4hPa WSW 0.7mph /  1.1km/h 4mph /  6.4km/h 92% 0.00in /  0mm 19 W/m2
07:54 33.6 °F /  0.9 °C 31.5 °F /  -0.3 °C 29.85in /  1010.7hPa WSW 0.2mph /  0.3km/h 4mph /  6.4km/h 92% 0.00in /  0mm 9 W/m2
07:59 33.7 °F /  0.9 °C 31.6 °F /  -0.2 °C 29.85in /  1010.7hPa Calm   4mph /  6.4km/h 92% 0.00in /  0mm 19 W/m2
08:04 33.7 °F /  0.9 °C 31.5 °F /  -0.3 °C 29.85in /  1010.7hPa Calm   4mph /  6.4km/h 91.5% 0.00in /  0mm 21 W/m2
08:09 33.8 °F /  1 °C 31.5 °F /  -0.3 °C 29.85in /  1010.7hPa Calm     91% 0.00in /  0mm 25 W/m2
08:14 33.8 °F /  1 °C 31.5 °F /  -0.3 °C 29.85in /  1010.7hPa WSW 0.3mph /  0.5km/h 3mph /  4.8km/h 91% 0.00in /  0mm 30 W/m2
08:19 33.9 °F /  1.1 °C 31.6 °F /  -0.2 °C 29.85in /  1010.7hPa WSW 0.7mph /  1.1km/h 4mph /  6.4km/h 91% 0.00in /  0mm 37 W/m2
08:24 34 °F /  1.1 °C 31.6 °F /  -0.2 °C 29.85in /  1010.7hPa West 0.4mph /  0.6km/h 5mph /  8km/h 91% 0.00in /  0mm 42 W/m2
08:29 34.1 °F /  1.2 °C 31.6 °F /  -0.2 °C 29.86in /  1011.1hPa Calm   5mph /  8km/h 90.6% 0.00in /  0mm 47 W/m2
08:34 34.2 °F /  1.2 °C 31.5 °F /  -0.3 °C 29.85in /  1010.7hPa WNW 1.5mph /  2.4km/h 5mph /  8km/h 90% 0.00in /  0mm 58 W/m2
08:39 34.3 °F /  1.3 °C 31.7 °F /  -0.2 °C 29.85in /  1010.7hPa Calm   4mph /  6.4km/h 90% 0.00in /  0mm 72 W/m2
08:44 34.4 °F /  1.3 °C 31.8 °F /  -0.1 °C 29.85in /  1010.7hPa WNW 0.1mph /  0.2km/h 4mph /  6.4km/h 90% 0.00in /  0mm 79 W/m2
08:49 34.7 °F /  1.5 °C 32 °F /  0 °C 29.85in /  1010.7hPa WNW 0.1mph /  0.2km/h 4mph /  6.4km/h 90% 0.00in /  0mm 83 W/m2
08:54 34.8 °F /  1.6 °C 32.2 °F /  0.1 °C 29.85in /  1010.7hPa WNW 0.6mph /  1km/h 4mph /  6.4km/h 89.9% 0.00in /  0mm 84 W/m2
08:59 35 °F /  1.7 °C 32.1 °F /  0.1 °C 29.85in /  1010.7hPa Calm   4mph /  6.4km/h 89% 0.00in /  0mm 93 W/m2
09:00 35.1 °F /  1.7 °C 32.2 °F /  0.1 °C 29.85in /  1010.7hPa Calm   4mph /  6.4km/h 89% 0.00in /  0mm 93 W/m2
09:30 36.4 °F /  2.4 °C 32.9 °F /  0.5 °C 29.85in /  1010.7hPa NNW 1mph /  1.6km/h 9mph /  14.5km/h 87% 0.00in /  0mm 145 W/m2
10:00 37.8 °F /  3.2 °C 33.1 °F /  0.6 °C 29.85in /  1010.7hPa NW 2mph /  3.2km/h 9mph /  14.5km/h 83% 0.00in /  0mm 169 W/m2
10:30 39.5 °F /  4.2 °C 33.8 °F /  1 °C 29.85in /  1010.7hPa NW 1mph /  1.6km/h 6mph /  9.7km/h 80% 0.00in /  0mm 213 W/m2
11:00 40.6 °F /  4.8 °C 34 °F /  1.1 °C 29.84in /  1010.4hPa NNW 2mph /  3.2km/h 7mph /  11.3km/h 77% 0.00in /  0mm 207 W/m2
11:30 40.7 °F /  4.8 °C 32.7 °F /  0.4 °C 29.83in /  1010hPa NNW 3mph /  4.8km/h 12mph /  19.3km/h 73% 0.00in /  0mm 195 W/m2
12:04 40.8 °F /  4.9 °C 32.1 °F /  0.1 °C 29.83in /  1010hPa NW 6.2mph /  10km/h 13mph /  20.9km/h 71% 0.00in /  0mm 142 W/m2
12:09 40.9 °F /  4.9 °C 32.3 °F /  0.2 °C 29.83in /  1010hPa NW 6.1mph /  9.8km/h 13mph /  20.9km/h 71.4% 0.00in /  0mm 396 W/m2
12:14 41.3 °F /  5.2 °C 33 °F /  0.6 °C 29.83in /  1010hPa NW 2.1mph /  3.4km/h 13mph /  20.9km/h 72% 0.00in /  0mm 396 W/m2
12:19 41.8 °F /  5.4 °C 33 °F /  0.6 °C 29.83in /  1010hPa NNW 4.6mph /  7.4km/h 13mph /  20.9km/h 70.6% 0.00in /  0mm 47 W/m2
12:24 41.6 °F /  5.3 °C 32.2 °F /  0.1 °C 29.83in /  1010hPa NNW 3.9mph /  6.3km/h 13mph /  20.9km/h 69% 0.00in /  0mm 51 W/m2
12:29 41 °F /  5 °C 31.9 °F /  -0.1 °C 29.83in /  1010hPa NW 3.1mph /  5km/h 13mph /  20.9km/h 69.8% 0.00in /  0mm 44 W/m2
12:34 40.4 °F /  4.7 °C 31.8 °F /  -0.1 °C 29.83in /  1010hPa NW 3.9mph /  6.3km/h 13mph /  20.9km/h 71% 0.00in /  0mm 37 W/m2
12:39 39.9 °F /  4.4 °C 31.7 °F /  -0.2 °C 29.83in /  1010hPa NW 2.3mph /  3.7km/h 10mph /  16.1km/h 72.3% 0.00in /  0mm 76 W/m2
12:44 39.6 °F /  4.2 °C 31.7 °F /  -0.2 °C 29.83in /  1010hPa NW 0.8mph /  1.3km/h 10mph /  16.1km/h 73.1% 0.00in /  0mm 135 W/m2
12:49 39.6 °F /  4.2 °C 32 °F /  0 °C 29.82in /  1009.7hPa NNW 1.2mph /  1.9km/h 10mph /  16.1km/h 74% 0.00in /  0mm 323 W/m2
12:54 39.8 °F /  4.3 °C 32.5 °F /  0.3 °C 29.83in /  1010hPa NNW 0.9mph /  1.4km/h 10mph /  16.1km/h 74.8% 0.00in /  0mm 195 W/m2
12:59 40.3 °F /  4.6 °C 32.3 °F /  0.2 °C 29.83in /  1010hPa NW 4.4mph /  7.1km/h 11mph /  17.7km/h 72.8% 0.00in /  0mm 181 W/m2
13:04 40.4 °F /  4.7 °C 31.2 °F /  -0.4 °C 29.83in /  1010hPa WNW 8.1mph /  13km/h 18mph /  29km/h 69.3% 0.00in /  0mm 183 W/m2
13:09 40.2 °F /  4.6 °C 30.2 °F /  -1 °C 29.83in /  1010hPa WNW 6.8mph /  10.9km/h 18mph /  29km/h 67% 0.00in /  0mm 183 W/m2
13:14 40.3 °F /  4.6 °C 30.3 °F /  -0.9 °C 29.83in /  1010hPa WNW 7.8mph /  12.6km/h 18mph /  29km/h 67.3% 0.00in /  0mm 155 W/m2
13:19 40.4 °F /  4.7 °C 30 °F /  -1.1 °C 29.83in /  1010hPa WNW 5.2mph /  8.4km/h 18mph /  29km/h 66% 0.00in /  0mm 146 W/m2
13:24 40.6 °F /  4.8 °C 30.2 °F /  -1 °C 29.83in /  1010hPa WNW 6.9mph /  11.1km/h 18mph /  29km/h 66.1% 0.00in /  0mm 169 W/m2
13:29 40.6 °F /  4.8 °C 29.6 °F /  -1.3 °C 29.83in /  1010hPa WNW 6.3mph /  10.1km/h 18mph /  29km/h 64.6% 0.00in /  0mm 188 W/m2
13:34 40.6 °F /  4.8 °C 29.5 °F /  -1.4 °C 29.83in /  1010hPa NW 4.5mph /  7.2km/h 18mph /  29km/h 64.3% 0.00in /  0mm 165 W/m2
13:39 40.6 °F /  4.8 °C 29.3 °F /  -1.5 °C 29.83in /  1010hPa NW 5.6mph /  9km/h 14mph /  22.5km/h 63.7% 0.00in /  0mm 229 W/m2
13:44 40.5 °F /  4.7 °C 28.8 °F /  -1.8 °C 29.83in /  1010hPa WNW 6.5mph /  10.5km/h 17mph /  27.4km/h 62.5% 0.00in /  0mm 195 W/m2
13:49 40.6 °F /  4.8 °C 29.1 °F /  -1.6 °C 29.83in /  1010hPa WNW 8mph /  12.9km/h 17mph /  27.4km/h 63.3% 0.00in /  0mm 350 W/m2
13:54 40.5 °F /  4.7 °C 29.1 °F /  -1.6 °C 29.83in /  1010hPa WNW 8.7mph /  14km/h 18mph /  29km/h 63.4% 0.00in /  0mm 262 W/m2
13:59 40.3 °F /  4.6 °C 28.4 °F /  -2 °C 29.83in /  1010hPa WNW 9.7mph /  15.6km/h 18mph /  29km/h 62.2% 0.00in /  0mm 195 W/m2
14:04 39.8 °F /  4.3 °C 28 °F /  -2.2 °C 29.83in /  1010hPa WNW 8.2mph /  13.2km/h 18mph /  29km/h 62.3% 0.00in /  0mm 195 W/m2
14:09 39.5 °F /  4.2 °C 27.9 °F /  -2.3 °C 29.83in /  1010hPa NW 5.6mph /  9km/h 16mph /  25.7km/h 62.8% 0.00in /  0mm 185 W/m2
14:14 39.4 °F /  4.1 °C 28 °F /  -2.2 °C 29.83in /  1010hPa WNW 7.8mph /  12.6km/h 16mph /  25.7km/h 63.2% 0.00in /  0mm 141 W/m2
14:19 39.3 °F /  4.1 °C 27.8 °F /  -2.3 °C 29.83in /  1010hPa WNW 6.3mph /  10.1km/h 16mph /  25.7km/h 63% 0.00in /  0mm 44 W/m2
14:24 39.2 °F /  4 °C 28.1 °F /  -2.2 °C 29.83in /  1010hPa NW 4.3mph /  6.9km/h 16mph /  25.7km/h 64% 0.00in /  0mm 62 W/m2
14:29 39.1 °F /  3.9 °C 27.6 °F /  -2.4 °C 29.83in /  1010hPa NW 6.2mph /  10km/h 16mph /  25.7km/h 63% 0.00in /  0mm 72 W/m2
14:34 39 °F /  3.9 °C 27.2 °F /  -2.7 °C 29.83in /  1010hPa WNW 9.2mph /  14.8km/h 18mph /  29km/h 62.2% 0.00in /  0mm 53 W/m2
14:39 38.9 °F /  3.8 °C 27 °F /  -2.8 °C 29.83in /  1010hPa NW 5.6mph /  9km/h 18mph /  29km/h 62% 0.00in /  0mm 40 W/m2
14:44 38.9 °F /  3.8 °C 26.7 °F /  -2.9 °C 29.84in /  1010.4hPa WNW 9.5mph /  15.3km/h 24mph /  38.6km/h 61% 0.00in /  0mm 39 W/m2
14:49 38.9 °F /  3.8 °C 26.2 °F /  -3.2 °C 29.84in /  1010.4hPa NW 8.2mph /  13.2km/h 24mph /  38.6km/h 60% 0.00in /  0mm 37 W/m2
14:54 38.8 °F /  3.8 °C 26.1 °F /  -3.3 °C 29.84in /  1010.4hPa WNW 9.7mph /  15.6km/h 24mph /  38.6km/h 60% 0.00in /  0mm 32 W/m2
14:59 38.7 °F /  3.7 °C 26.2 °F /  -3.2 °C 29.84in /  1010.4hPa NW 5.9mph /  9.5km/h 24mph /  38.6km/h 60.5% 0.00in /  0mm 26 W/m2
15:04 38.7 °F /  3.7 °C 26.1 °F /  -3.3 °C 29.84in /  1010.4hPa NW 8.8mph /  14.2km/h 24mph /  38.6km/h 60.2% 0.00in /  0mm 32 W/m2
15:09 38.6 °F /  3.7 °C 25.9 °F /  -3.4 °C 29.84in /  1010.4hPa NW 3.5mph /  5.6km/h 18mph /  29km/h 60% 0.00in /  0mm 33 W/m2
15:14 38.5 °F /  3.6 °C 25.9 °F /  -3.4 °C 29.85in /  1010.7hPa NW 6.3mph /  10.1km/h 18mph /  29km/h 60% 0.00in /  0mm 30 W/m2
15:19 38.4 °F /  3.6 °C 25.8 °F /  -3.4 °C 29.85in /  1010.7hPa NW 5.6mph /  9km/h 18mph /  29km/h 60% 0.00in /  0mm 25 W/m2
15:24 38.3 °F /  3.5 °C 25.6 °F /  -3.6 °C 29.85in /  1010.7hPa NW 8.9mph /  14.3km/h 18mph /  29km/h 60% 0.00in /  0mm 19 W/m2
15:26 38.1 °F /  3.4 °C 25.5 °F /  -3.6 °C 29.85in /  1010.7hPa WNW 4.6mph /  7.4km/h 18mph /  29km/h 60% 0.00in /  0mm 19 W/m2
15:30 37.9 °F /  3.3 °C 25.3 °F /  -3.7 °C 29.85in /  1010.7hPa NW 7mph /  11.3km/h 18mph /  29km/h 60% 0.00in /  0mm 24 W/m2
16:04 37.2 °F /  2.9 °C 25.8 °F /  -3.4 °C 29.86in /  1011.1hPa NW 3.9mph /  6.3km/h 9mph /  14.5km/h 63% 0.00in /  0mm 5 W/m2
16:09 37.1 °F /  2.8 °C 25.7 °F /  -3.5 °C 29.86in /  1011.1hPa WNW 5.4mph /  8.7km/h 13mph /  20.9km/h 63% 0.00in /  0mm 5 W/m2
16:14 37.1 °F /  2.8 °C 25.7 °F /  -3.5 °C 29.86in /  1011.1hPa WNW 8.4mph /  13.5km/h 16mph /  25.7km/h 63.2% 0.00in /  0mm 0 W/m2
16:19 37 °F /  2.8 °C 25.6 °F /  -3.6 °C 29.86in /  1011.1hPa NW 7.6mph /  12.2km/h 16mph /  25.7km/h 63% 0.00in /  0mm 0 W/m2
16:24 36.9 °F /  2.7 °C 25.8 °F /  -3.4 °C 29.87in /  1011.4hPa WNW 6.1mph /  9.8km/h 16mph /  25.7km/h 63.9% 0.00in /  0mm 0 W/m2
16:29 36.8 °F /  2.7 °C 25.9 °F /  -3.4 °C 29.87in /  1011.4hPa NW 6mph /  9.7km/h 16mph /  25.7km/h 64.4% 0.00in /  0mm 0 W/m2
16:34 36.7 °F /  2.6 °C 26 °F /  -3.3 °C 29.87in /  1011.4hPa NW 5mph /  8km/h 16mph /  25.7km/h 65% 0.00in /  0mm 0 W/m2
16:39 36.5 °F /  2.5 °C 25.9 °F /  -3.4 °C 29.87in /  1011.4hPa NW 5.5mph /  8.9km/h 15mph /  24.1km/h 65% 0.00in /  0mm 0 W/m2
16:44 36.5 °F /  2.5 °C 26 °F /  -3.3 °C 29.87in /  1011.4hPa WNW 5.9mph /  9.5km/h 17mph /  27.4km/h 65.4% 0.00in /  0mm 0 W/m2
16:49 36.4 °F /  2.4 °C 25.8 °F /  -3.4 °C 29.87in /  1011.4hPa WNW 8.7mph /  14km/h 17mph /  27.4km/h 65% 0.00in /  0mm 0 W/m2
16:54 36.4 °F /  2.4 °C 26.1 °F /  -3.3 °C 29.87in /  1011.4hPa WNW 4.7mph /  7.6km/h 17mph /  27.4km/h 66% 0.00in /  0mm 0 W/m2
16:59 36.3 °F /  2.4 °C 26.1 °F /  -3.3 °C 29.87in /  1011.4hPa NW 7.9mph /  12.7km/h 17mph /  27.4km/h 66% 0.00in /  0mm 0 W/m2
17:04 36.3 °F /  2.4 °C 26 °F /  -3.3 °C 29.87in /  1011.4hPa WNW 3.8mph /  6.1km/h 17mph /  27.4km/h 66% 0.00in /  0mm 0 W/m2
17:09 36.2 °F /  2.3 °C 26 °F /  -3.3 °C 29.87in /  1011.4hPa NW 2.7mph /  4.3km/h 12mph /  19.3km/h 66% 0.00in /  0mm 0 W/m2
17:14 36.2 °F /  2.3 °C 26 °F /  -3.3 °C 29.87in /  1011.4hPa NW 3mph /  4.8km/h 12mph /  19.3km/h 66% 0.00in /  0mm 0 W/m2
17:19 36.1 °F /  2.3 °C 25.9 °F /  -3.4 °C 29.88in /  1011.7hPa NW 3.6mph /  5.8km/h 12mph /  19.3km/h 66% 0.00in /  0mm 0 W/m2
17:24 36.1 °F /  2.3 °C 25.6 °F /  -3.6 °C 29.88in /  1011.7hPa WNW 2.9mph /  4.7km/h 12mph /  19.3km/h 65.3% 0.00in /  0mm 0 W/m2
17:29 36.1 °F /  2.3 °C 25.8 °F /  -3.4 °C 29.88in /  1011.7hPa WNW 1.9mph /  3.1km/h 12mph /  19.3km/h 65.8% 0.00in /  0mm 0 W/m2
17:34 36.1 °F /  2.3 °C 25.8 °F /  -3.4 °C 29.88in /  1011.7hPa WNW 4mph /  6.4km/h 12mph /  19.3km/h 65.8% 0.00in /  0mm 0 W/m2
17:39 36 °F /  2.2 °C 25.8 °F /  -3.4 °C 29.88in /  1011.7hPa NW 3.7mph /  6km/h 12mph /  19.3km/h 66% 0.00in /  0mm 0 W/m2
17:44 35.9 °F /  2.2 °C 25.7 °F /  -3.5 °C 29.88in /  1011.7hPa NW 2.4mph /  3.9km/h 12mph /  19.3km/h 66% 0.00in /  0mm 0 W/m2
17:49 35.8 °F /  2.1 °C 25.6 °F /  -3.6 °C 29.88in /  1011.7hPa NW 5.2mph /  8.4km/h 12mph /  19.3km/h 66% 0.00in /  0mm 0 W/m2
17:54 35.7 °F /  2.1 °C 25.4 °F /  -3.7 °C 29.88in /  1011.7hPa NW 2.8mph /  4.5km/h 12mph /  19.3km/h 65.8% 0.00in /  0mm 0 W/m2
17:59 35.5 °F /  1.9 °C 25.3 °F /  -3.7 °C 29.89in /  1012.1hPa NW 2.6mph /  4.2km/h 12mph /  19.3km/h 66% 0.00in /  0mm 0 W/m2
18:04 35.3 °F /  1.8 °C 25.1 °F /  -3.8 °C 29.89in /  1012.1hPa NW 6.3mph /  10.1km/h 15mph /  24.1km/h 66% 0.00in /  0mm 0 W/m2
18:09 35.2 °F /  1.8 °C 25 °F /  -3.9 °C 29.89in /  1012.1hPa NW 4.2mph /  6.8km/h 15mph /  24.1km/h 66% 0.00in /  0mm 0 W/m2
18:14 35.1 °F /  1.7 °C 24.9 °F /  -3.9 °C 29.89in /  1012.1hPa WNW 2mph /  3.2km/h 15mph /  24.1km/h 66.1% 0.00in /  0mm 0 W/m2
18:19 35 °F /  1.7 °C 25.1 °F /  -3.8 °C 29.89in /  1012.1hPa NW 2.6mph /  4.2km/h 15mph /  24.1km/h 67% 0.00in /  0mm 0 W/m2
18:24 34.9 °F /  1.6 °C 25.1 °F /  -3.8 °C 29.90in /  1012.4hPa NW 4.1mph /  6.6km/h 15mph /  24.1km/h 67% 0.00in /  0mm 0 W/m2
18:29 34.8 °F /  1.6 °C 25 °F /  -3.9 °C 29.90in /  1012.4hPa NW 4.4mph /  7.1km/h 15mph /  24.1km/h 67% 0.00in /  0mm 0 W/m2
18:34 34.8 °F /  1.6 °C 25 °F /  -3.9 °C 29.90in /  1012.4hPa NW 2.8mph /  4.5km/h 15mph /  24.1km/h 67% 0.00in /  0mm 0 W/m2
18:39 34.8 °F /  1.6 °C 25 °F /  -3.9 °C 29.90in /  1012.4hPa WNW 3.5mph /  5.6km/h 13mph /  20.9km/h 67% 0.00in /  0mm 0 W/m2
18:44 34.7 °F /  1.5 °C 24.9 °F /  -3.9 °C 29.91in /  1012.8hPa NW 1.3mph /  2.1km/h 13mph /  20.9km/h 67% 0.00in /  0mm 0 W/m2
18:49 34.5 °F /  1.4 °C 24.7 °F /  -4.1 °C 29.91in /  1012.8hPa NW 4.2mph /  6.8km/h 13mph /  20.9km/h 67% 0.00in /  0mm 0 W/m2
18:54 34.4 °F /  1.3 °C 25 °F /  -3.9 °C 29.91in /  1012.8hPa WNW 2.3mph /  3.7km/h 13mph /  20.9km/h 68% 0.00in /  0mm 0 W/m2
18:59 34.4 °F /  1.3 °C 25 °F /  -3.9 °C 29.91in /  1012.8hPa WNW 4.3mph /  6.9km/h 13mph /  20.9km/h 68% 0.00in /  0mm 0 W/m2
19:04 34.5 °F /  1.4 °C 25 °F /  -3.9 °C 29.91in /  1012.8hPa WNW 3.3mph /  5.3km/h 13mph /  20.9km/h 68% 0.00in /  0mm 0 W/m2
19:09 34.5 °F /  1.4 °C 25 °F /  -3.9 °C 29.92in /  1013.1hPa WNW 2.3mph /  3.7km/h 9mph /  14.5km/h 68% 0.00in /  0mm 0 W/m2
19:14 34.4 °F /  1.3 °C 25 °F /  -3.9 °C 29.92in /  1013.1hPa WNW 3.7mph /  6km/h 10mph /  16.1km/h 68% 0.00in /  0mm 0 W/m2
19:19 34.4 °F /  1.3 °C 25 °F /  -3.9 °C 29.92in /  1013.1hPa WNW 3.1mph /  5km/h 11mph /  17.7km/h 68% 0.00in /  0mm 0 W/m2
19:24 34.4 °F /  1.3 °C 24.9 °F /  -3.9 °C 29.92in /  1013.1hPa WNW 3.1mph /  5km/h 11mph /  17.7km/h 68% 0.00in /  0mm 0 W/m2
19:29 34.4 °F /  1.3 °C 24.9 °F /  -3.9 °C 29.92in /  1013.1hPa WNW 2mph /  3.2km/h 11mph /  17.7km/h 68% 0.00in /  0mm 0 W/m2
19:34 34.3 °F /  1.3 °C 24.9 °F /  -3.9 °C 29.92in /  1013.1hPa WNW 3.2mph /  5.1km/h 11mph /  17.7km/h 68% 0.00in /  0mm 0 W/m2
19:38 34.3 °F /  1.3 °C 24.9 °F /  -3.9 °C 29.92in /  1013.1hPa WNW 2.8mph /  4.5km/h 8mph /  12.9km/h 68% 0.00in /  0mm 0 W/m2
Hartford County Weather
Compliments of Weather Underground - 4 mb